| time (UTC) | temp F | wind direction | speed MPH | gust MPH | rain 1hr in | rain 24hr in | rain mn in | humidity % | barometer mb |
| 20260508024519 | 62 | 113 | 1.0 | 5.0 | 0.00 | 0.00 | 0.00 | 75 | 1034.2 |
| 20260508023518 | 62 | 113 | 1.0 | 4.0 | 0.00 | 0.00 | 0.00 | 76 | 1034.4 |
| 20260508022519 | 61 | 0.0 | 2.0 | 0.00 | 0.00 | 0.00 | 78 | 1034.5 | |
| 20260508021519 | 61 | 0.0 | 3.0 | 0.00 | 0.00 | 0.00 | 78 | 1034.5 | |
| 20260508020539 | 60 | 0.0 | 3.0 | 0.00 | 0.00 | 0.00 | 79 | 1034.6 | |
| 20260508015518 | 59 | 0.0 | 3.0 | 0.00 | 0.00 | 0.00 | 79 | 1034.6 | |
| 20260508014538 | 59 | 90 | 1.0 | 2.0 | 0.00 | 0.00 | 0.00 | 80 | 1034.7 |
| 20260508013518 | 58 | 90 | 1.0 | 3.0 | 0.00 | 0.00 | 0.00 | 81 | 1034.7 |
| 20260508012518 | 58 | 0.0 | 2.0 | 0.00 | 0.00 | 0.00 | 81 | 1034.8 | |
| 20260508011518 | 57 | 0.0 | 2.0 | 0.00 | 0.00 | 0.00 | 82 | 1034.9 | |
| 20260508010518 | 57 | 0.0 | 2.0 | 0.00 | 0.00 | 0.00 | 82 | 1034.9 | |
| 20260508005518 | 56 | 0.0 | 1.0 | 0.00 | 0.00 | 0.00 | 83 | 1034.8 | |
| 20260508004538 | 55 | 0.0 | 1.0 | 0.00 | 0.00 | 0.00 | 85 | 1034.9 | |
| 20260508003518 | 55 | 0.0 | 2.0 | 0.00 | 0.00 | 0.00 | 87 | 1034.9 | |
| 20260508002518 | 54 | 0.0 | 1.0 | 0.00 | 0.00 | 0.00 | 90 | 1034.9 | |
| 20260508001518 | 53 | 0.0 | 0.0 | 0.00 | 0.01 | 0.00 | 93 | 1035.0 | |
| 20260508000518 | 51 | 0.0 | 1.0 | 0.00 | 0.01 | 0.00 | 93 | 1034.9 | |
| 20260507235538 | 50 | 0.0 | 1.0 | 0.00 | 0.01 | 0.00 | 93 | 1034.8 | |
| 20260507234538 | 50 | 0.0 | 2.0 | 0.00 | 0.01 | 0.00 | 93 | 1034.8 | |
| 20260507233518 | 49 | 0.0 | 0.0 | 0.00 | 0.01 | 0.00 | 93 | 1034.7 | |
| 20260507232558 | 49 | 0.0 | 0.0 | 0.00 | 0.01 | 0.00 | 93 | 1034.7 | |
| 20260507231518 | 48 | 0.0 | 0.0 | 0.00 | 0.01 | 0.00 | 92 | 1034.6 | |
| 20260507230518 | 48 | 0.0 | 0.0 | 0.00 | 0.01 | 0.00 | 92 | 1034.6 | |
| 20260507225518 | 48 | 0.0 | 0.0 | 0.00 | 0.01 | 0.00 | 92 | 1034.7 | |
| 20260507224518 | 48 | 0.0 | 0.0 | 0.00 | 0.01 | 0.00 | 92 | 1034.5 | |
| 20260507223518 | 49 | 0.0 | 0.0 | 0.00 | 0.01 | 0.00 | 92 | 1034.5 | |
| 20260507222518 | 49 | 0.0 | 1.0 | 0.00 | 0.01 | 0.00 | 92 | 1034.3 | |
| 20260507221538 | 49 | 0.0 | 1.0 | 0.00 | 0.01 | 0.00 | 92 | 1034.2 | |
| 20260507220518 | 49 | 0.0 | 0.0 | 0.00 | 0.01 | 0.00 | 92 | 1034.2 | |
| 20260507215518 | 48 | 0.0 | 0.0 | 0.00 | 0.01 | 0.00 | 91 | 1034.2 | |
| 20260507214518 | 48 | 0.0 | 0.0 | 0.00 | 0.01 | 0.00 | 91 | 1034.3 | |
| 20260507213518 | 49 | 0.0 | 0.0 | 0.00 | 0.01 | 0.00 | 91 | 1034.2 | |
| 20260507212517 | 50 | 0.0 | 0.0 | 0.00 | 0.01 | 0.00 | 91 | 1034.1 | |
| 20260507211517 | 50 | 0.0 | 0.0 | 0.00 | 0.01 | 0.00 | 91 | 1034.2 | |
| 20260507210557 | 50 | 0.0 | 0.0 | 0.00 | 0.01 | 0.00 | 91 | 1034.0 | |
| 20260507205518 | 50 | 0.0 | 0.0 | 0.00 | 0.01 | 0.00 | 91 | 1034.0 | |
| 20260507204518 | 50 | 0.0 | 0.0 | 0.00 | 0.01 | 0.00 | 90 | 1033.9 | |
| 20260507203537 | 50 | 0.0 | 0.0 | 0.00 | 0.01 | 0.00 | 90 | 1033.7 | |
| 20260507202537 | 51 | 0.0 | 0.0 | 0.00 | 0.01 | 0.00 | 90 | 1033.7 | |
| 20260507201518 | 51 | 0.0 | 0.0 | 0.00 | 0.01 | 0.00 | 90 | 1033.8 | |
| 20260507200538 | 51 | 0.0 | 0.0 | 0.00 | 0.01 | 0.00 | 89 | 1033.7 | |
| 20260507195517 | 51 | 0.0 | 0.0 | 0.00 | 0.01 | 0.00 | 89 | 1033.7 | |
| 20260507194517 | 52 | 0.0 | 0.0 | 0.00 | 0.01 | 0.00 | 88 | 1033.7 | |
| 20260507193517 | 52 | 0.0 | 0.0 | 0.00 | 0.01 | 0.00 | 87 | 1033.8 | |
| 20260507192517 | 53 | 0.0 | 0.0 | 0.00 | 0.01 | 0.00 | 87 | 1033.7 | |
| 20260507191517 | 54 | 0.0 | 1.0 | 0.00 | 0.01 | 0.00 | 87 | 1033.9 | |
| 20260507190537 | 54 | 0.0 | 0.0 | 0.00 | 0.02 | 0.00 | 87 | 1033.9 | |
| 20260507185517 | 55 | 0.0 | 0.0 | 0.00 | 0.03 | 0.00 | 87 | 1033.7 | |
| 20260507184537 | 55 | 0.0 | 1.0 | 0.00 | 0.06 | 0.00 | 87 | 1033.7 | |
| 20260507183517 | 55 | 0.0 | 1.0 | 0.00 | 0.09 | 0.00 | 87 | 1033.7 | |
| 20260507182517 | 55 | 0.0 | 2.0 | 0.00 | 0.09 | 0.00 | 88 | 1033.5 | |
| 20260507181517 | 55 | 0.0 | 1.0 | 0.00 | 0.09 | 0.00 | 88 | 1033.5 | |
| 20260507180517 | 55 | 0.0 | 4.0 | 0.00 | 0.09 | 0.00 | 89 | 1033.6 | |
| 20260507175557 | 54 | 0.0 | 2.0 | 0.00 | 0.10 | 0.00 | 90 | 1033.5 | |
| 20260507174517 | 54 | 0.0 | 1.0 | 0.00 | 0.10 | 0.00 | 91 | 1033.5 | |
| 20260507173518 | 54 | 0.0 | 1.0 | 0.00 | 0.11 | 0.00 | 91 | 1033.7 | |
| 20260507172519 | 54 | 0.0 | 1.0 | 0.00 | 0.11 | 0.00 | 91 | 1033.6 | |
| 20260507171519 | 54 | 0.0 | 2.0 | 0.00 | 0.11 | 0.00 | 91 | 1033.7 | |
| 20260507170519 | 54 | 0.0 | 1.0 | 0.00 | 0.12 | 0.00 | 91 | 1033.8 | |
| 20260507165519 | 54 | 0.0 | 0.0 | 0.00 | 0.12 | 0.00 | 91 | 1033.9 | |
| 20260507164519 | 54 | 0.0 | 1.0 | 0.00 | 0.12 | 0.00 | 91 | 1033.8 | |
| 20260507163519 | 54 | 0.0 | 0.0 | 0.00 | 0.12 | 0.00 | 91 | 1033.9 | |
| 20260507162519 | 54 | 0.0 | 1.0 | 0.00 | 0.15 | 0.00 | 91 | 1033.8 | |
| 20260507161519 | 53 | 0.0 | 0.0 | 0.00 | 0.17 | 0.00 | 91 | 1033.8 | |
| 20260507160519 | 53 | 0.0 | 0.0 | 0.00 | 0.19 | 0.00 | 91 | 1033.7 | |
| 20260507155517 | 53 | 0.0 | 0.0 | 0.00 | 0.19 | 0.19 | 91 | 1033.6 | |
| 20260507154518 | 53 | 0.0 | 0.0 | 0.00 | 0.19 | 0.19 | 90 | 1033.5 | |
| 20260507153518 | 54 | 0.0 | 1.0 | 0.00 | 0.20 | 0.19 | 90 | 1033.5 | |
| 20260507152518 | 54 | 0.0 | 0.0 | 0.00 | 0.20 | 0.19 | 90 | 1033.3 | |
| 20260507151518 | 54 | 0.0 | 0.0 | 0.00 | 0.20 | 0.19 | 90 | 1033.4 | |
| 20260507150517 | 54 | 0.0 | 0.0 | 0.00 | 0.20 | 0.19 | 91 | 1033.4 | |
| 20260507145518 | 54 | 0.0 | 0.0 | 0.00 | 0.21 | 0.19 | 90 | 1033.4 | |
| 20260507144518 | 54 | 0.0 | 0.0 | 0.00 | 0.21 | 0.19 | 90 | 1033.5 | |
| 20260507143517 | 54 | 0.0 | 0.0 | 0.00 | 0.21 | 0.19 | 90 | 1033.5 | |
| 20260507142517 | 55 | 0.0 | 0.0 | 0.00 | 0.21 | 0.19 | 90 | 1033.7 | |
| 20260507141517 | 55 | 0.0 | 0.0 | 0.00 | 0.23 | 0.19 | 90 | 1033.7 | |
| 20260507140517 | 55 | 0.0 | 0.0 | 0.00 | 0.24 | 0.19 | 90 | 1033.7 | |
| 20260507135517 | 55 | 0.0 | 0.0 | 0.00 | 0.24 | 0.19 | 89 | 1033.8 | |
| 20260507134517 | 55 | 0.0 | 0.0 | 0.00 | 0.24 | 0.19 | 89 | 1033.8 | |
| 20260507133519 | 56 | 0.0 | 0.0 | 0.00 | 0.25 | 0.19 | 89 | 1033.9 | |
| 20260507132519 | 56 | 0.0 | 1.0 | 0.00 | 0.25 | 0.19 | 89 | 1033.9 | |
| 20260507131519 | 56 | 0.0 | 0.0 | 0.00 | 0.25 | 0.19 | 89 | 1033.8 | |
| 20260507130519 | 56 | 0.0 | 0.0 | 0.00 | 0.25 | 0.19 | 88 | 1033.9 | |
| 20260507125539 | 57 | 0.0 | 0.0 | 0.00 | 0.25 | 0.19 | 88 | 1033.8 | |
| 20260507124519 | 57 | 0.0 | 0.0 | 0.00 | 0.25 | 0.19 | 88 | 1033.8 | |
| 20260507123519 | 57 | 0.0 | 0.0 | 0.00 | 0.25 | 0.19 | 87 | 1033.6 | |
| 20260507122519 | 57 | 0.0 | 1.0 | 0.00 | 0.25 | 0.19 | 87 | 1033.6 | |
| 20260507121519 | 57 | 0.0 | 2.0 | 0.00 | 0.25 | 0.19 | 87 | 1033.6 | |
| 20260507120519 | 58 | 0.0 | 1.0 | 0.00 | 0.25 | 0.19 | 87 | 1033.6 | |
| 20260507115539 | 58 | 0.0 | 2.0 | 0.00 | 0.25 | 0.19 | 86 | 1033.7 | |
| 20260507114559 | 58 | 0.0 | 1.0 | 0.00 | 0.25 | 0.19 | 86 | 1033.6 | |
| 20260507113519 | 57 | 0.0 | 5.0 | 0.00 | 0.25 | 0.19 | 87 | 1033.7 | |
| 20260507112519 | 57 | 0.0 | 2.0 | 0.00 | 0.25 | 0.19 | 87 | 1033.7 | |
| 20260507111519 | 57 | 0.0 | 0.0 | 0.00 | 0.25 | 0.19 | 86 | 1033.7 | |
| 20260507110519 | 58 | 0.0 | 1.0 | 0.00 | 0.25 | 0.19 | 86 | 1033.6 | |
| 20260507105519 | 58 | 0.0 | 1.0 | 0.00 | 0.25 | 0.19 | 86 | 1033.6 | |
| 20260507104519 | 58 | 0.0 | 1.0 | 0.00 | 0.25 | 0.19 | 85 | 1033.5 | |
| 20260507103519 | 58 | 0.0 | 0.0 | 0.00 | 0.25 | 0.19 | 85 | 1033.4 | |
| 20260507102519 | 59 | 0.0 | 0.0 | 0.00 | 0.25 | 0.19 | 85 | 1033.3 | |
| 20260507101519 | 59 | 0.0 | 0.0 | 0.00 | 0.25 | 0.19 | 84 | 1033.3 | |
| 20260507100559 | 60 | 0.0 | 1.0 | 0.00 | 0.25 | 0.19 | 84 | 1033.3 | |
| 20260507095519 | 60 | 0.0 | 3.0 | 0.00 | 0.25 | 0.19 | 84 | 1033.2 | |
| 20260507094539 | 60 | 0.0 | 4.0 | 0.00 | 0.25 | 0.19 | 84 | 1033.1 | |
| 20260507093539 | 61 | 0.0 | 4.0 | 0.00 | 0.25 | 0.19 | 84 | 1033.0 | |
| 20260507092519 | 61 | 0.0 | 1.0 | 0.00 | 0.25 | 0.19 | 83 | 1032.8 | |
| 20260507091519 | 62 | 0.0 | 2.0 | 0.00 | 0.25 | 0.19 | 82 | 1032.8 | |
| 20260507090519 | 62 | 0.0 | 2.0 | 0.00 | 0.25 | 0.19 | 82 | 1033.0 | |
| 20260507085519 | 63 | 0.0 | 2.0 | 0.00 | 0.25 | 0.19 | 81 | 1032.9 | |
| 20260507084518 | 63 | 0.0 | 2.0 | 0.00 | 0.25 | 0.19 | 80 | 1032.9 | |
| 20260507083518 | 63 | 90 | 3.0 | 11.0 | 0.00 | 0.25 | 0.19 | 80 | 1033.0 |
| 20260507082518 | 64 | 113 | 2.0 | 6.0 | 0.00 | 0.25 | 0.19 | 80 | 1032.9 |
| 20260507081519 | 64 | 113 | 3.0 | 8.0 | 0.00 | 0.25 | 0.19 | 81 | 1033.0 |
| 20260507080538 | 64 | 113 | 2.0 | 4.0 | 0.00 | 0.25 | 0.19 | 82 | 1033.0 |
| 20260507075518 | 64 | 90 | 2.0 | 4.0 | 0.00 | 0.25 | 0.19 | 82 | 1032.9 |
| 20260507074518 | 64 | 113 | 3.0 | 11.0 | 0.00 | 0.25 | 0.19 | 81 | 1032.9 |
| 20260507073519 | 64 | 113 | 4.0 | 9.0 | 0.00 | 0.25 | 0.19 | 81 | 1033.0 |
| 20260507072518 | 65 | 113 | 2.0 | 7.0 | 0.00 | 0.25 | 0.19 | 80 | 1033.1 |
| 20260507071519 | 65 | 113 | 1.0 | 5.0 | 0.00 | 0.25 | 0.19 | 79 | 1032.9 |
| 20260507070539 | 65 | 113 | 1.0 | 4.0 | 0.00 | 0.25 | 0.19 | 79 | 1033.0 |
| 20260507065519 | 65 | 90 | 2.0 | 5.0 | 0.00 | 0.25 | 0.19 | 79 | 1032.9 |
| 20260507064539 | 65 | 113 | 2.0 | 4.0 | 0.00 | 0.25 | 0.19 | 79 | 1032.8 |
| 20260507063538 | 65 | 113 | 3.0 | 8.0 | 0.00 | 0.25 | 0.19 | 79 | 1033.0 |
| 20260507062518 | 65 | 113 | 2.0 | 6.0 | 0.00 | 0.25 | 0.19 | 79 | 1033.1 |
| 20260507061518 | 65 | 90 | 2.0 | 6.0 | 0.00 | 0.25 | 0.19 | 78 | 1033.2 |
| 20260507060559 | 65 | 113 | 2.0 | 5.0 | 0.00 | 0.25 | 0.19 | 79 | 1033.2 |
| 20260507055518 | 65 | 135 | 2.0 | 8.0 | 0.00 | 0.25 | 0.19 | 79 | 1033.3 |
| 20260507054518 | 65 | 113 | 1.0 | 5.0 | 0.00 | 0.25 | 0.19 | 80 | 1033.3 |
| 20260507053518 | 64 | 113 | 2.0 | 5.0 | 0.00 | 0.25 | 0.19 | 80 | 1033.5 |
| 20260507052518 | 64 | 113 | 1.0 | 3.0 | 0.00 | 0.25 | 0.19 | 80 | 1033.5 |
| 20260507051518 | 64 | 113 | 1.0 | 4.0 | 0.00 | 0.25 | 0.19 | 80 | 1033.5 |
| 20260507050518 | 64 | 113 | 2.0 | 9.0 | 0.00 | 0.25 | 0.19 | 79 | 1033.6 |
| 20260507045518 | 64 | 90 | 2.0 | 5.0 | 0.00 | 0.25 | 0.19 | 79 | 1033.6 |
| 20260507044518 | 64 | 0.0 | 2.0 | 0.00 | 0.25 | 0.19 | 80 | 1033.8 | |
| 20260507043518 | 65 | 113 | 1.0 | 3.0 | 0.00 | 0.25 | 0.19 | 79 | 1034.0 |
| 20260507042518 | 66 | 113 | 1.0 | 4.0 | 0.00 | 0.25 | 0.19 | 76 | 1034.0 |
| 20260507041518 | 66 | 0.0 | 2.0 | 0.00 | 0.25 | 0.19 | 78 | 1034.2 | |
| 20260507040558 | 64 | 113 | 1.0 | 4.0 | 0.00 | 0.25 | 0.19 | 81 | 1034.3 |
| 20260507035538 | 64 | 68 | 1.0 | 3.0 | 0.00 | 0.25 | 0.19 | 82 | 1034.4 |
| 20260507034518 | 63 | 90 | 1.0 | 4.0 | 0.00 | 0.25 | 0.19 | 85 | 1034.5 |
| 20260507033518 | 63 | 0.0 | 3.0 | 0.00 | 0.25 | 0.19 | 87 | 1034.6 | |
| 20260507032518 | 61 | 113 | 1.0 | 4.0 | 0.00 | 0.25 | 0.19 | 93 | 1034.8 |
| 20260507031538 | 60 | 0.0 | 2.0 | 0.00 | 0.25 | 0.19 | 94 | 1035.0 | |
| 20260507030518 | 60 | 0.0 | 1.0 | 0.00 | 0.25 | 0.19 | 96 | 1035.1 | |
| 20260507025518 | 59 | 90 | 1.0 | 4.0 | 0.00 | 0.25 | 0.19 | 96 | 1035.1 |